sat.trackr.live / text

‹ back to catalog

STARLINK-11409 [DTC]

NORAD 63061 · 2025-035K

PAYLOAD ACTIVE UNKNOWN

§ Identity

Operator
Country
US
Launch date
2025-02-21
Launch site
AFETR
Launch vehicle
Mass (kg)
RCS (m²)

Purposes: comms

External: N2YO · Heavens-Above · Gunter

§ Orbital elements

Epoch: 2026-05-24T18:21:42.003936Z

Period
91.67 min
Inclination
42.9987°
Eccentricity
0.0001640
Mean motion
15.70842065 rev/d
Perigee alt
355.4 km
Apogee alt
357.6 km
Semi-major
6,734.6 km
B*
1.2224e-3
RAAN
276.9516°
Arg perigee
251.3839°
Mean anomaly
108.6851°
Rev number
7,318

§ Raw data

STARLINK-11409 [DTC]1 63061U 25035K   26144.76506949  .00159455  00000+0  12224-2 0  99952 63061  42.9987 276.9516 0001640 251.3839 108.6851 15.70842065 73181

JSON: /api/v1/satellites/63061 · /tle

For live sub-satellite position, see the globe view (requires WebGL).

§ Visibility from observer

Set your observer location to see the next 7 days of passes ≥ 10°. The values pass through the URL so the page stays shareable.

No JS? Fill the form by hand. The geolocation button needs JavaScript.